Location: Girdwood
(60.9430°N, 149.1660°W)
Time: 18:31:42
(UTC-09:00)

Amateur Radio Satellites - All Passes

Search period start: 28 November 2014 18:01
Search period end: 29 November 2014 18:01
Location: Girdwood, 60.9430°N, 149.1660°W

Satellite Date Start Highest point End Downlink Frequencies (MHz)
Time Altitude Azimuth
MaSat-1 28 Nov 18:06:17 18:08:23 23° 332° (NNW) 18:10:24 437.345
HO-68 28 Nov 18:08:22 18:14:26 31° 37° (NE) 18:20:31 435.675
STARS 28 Nov 18:13:21 18:16:35 21° 312° (NW) 18:19:49 437.465
BRITE-PL 28 Nov 18:20:06 18:22:14 13° 41° (NE) 18:24:19 437.365/2234.400
SEEDS 28 Nov 18:23:16 18:24:56 12° 39° (NE) 18:26:36 437.485
AAUSAT CUBESAT 2 28 Nov 18:33:52 18:35:26 12° 39° (NE) 18:37:00 437.432
Cubesat XI-IV 28 Nov 18:39:33 18:44:46 49° 260° (W) 18:49:59 437.490
Oscar 11 28 Nov 18:42:51 18:43:36 10° 35° (NE) 18:44:21 145.826/435.025
AIST 1 28 Nov 18:45:01 18:47:10 13° 78° (ENE) 18:49:19
MOZHAYETS 4 28 Nov 18:49:33 18:54:13 72° 291° (WNW) 18:58:53
COMPASS 1 28 Nov 18:50:13 18:52:41 15° 44° (NE) 18:55:09 437.405
CANX-2 28 Nov 18:53:55 18:56:58 20° 49° (NE) 19:00:03 2200.000
PRISM 28 Nov 18:54:17 18:58:17 38° 98° (E) 19:02:15 437.425
PCSat 28 Nov 19:01:45 19:04:22 14° 105° (ESE) 19:07:00 145.827
KKS-1 28 Nov 19:01:59 19:03:02 11° 327° (NNW) 19:04:05 437.445
AO-7 28 Nov 19:02:30 19:05:57 13° 290° (WNW) 19:09:25 29.400- 29.500
CUBESAT XI-V 28 Nov 19:02:44 19:06:43 26° 90° (E) 19:10:39 437.345
GONETS M04 28 Nov 19:04:07 19:13:01 69° 69° (ENE) 19:21:48
STRAND 1 28 Nov 19:09:47 19:14:12 28° 91° (E) 19:18:34 437.568
DX 1 28 Nov 19:10:40 19:13:06 15° 41° (NE) 19:15:33 434.975-435.025
GOMX 1 28 Nov 19:12:17 19:15:31 20° 50° (NE) 19:18:39 467.674
UWE-3 28 Nov 19:16:03 19:16:39 10° 36° (NE) 19:17:15 435.000/436.395/437.385
CUTE-I 28 Nov 19:21:04 19:25:41 29° 269° (W) 19:30:20 437.470
CUBEBUG 2 28 Nov 19:21:21 19:22:53 12° 39° (NE) 19:24:24 437.445
AUBIESAT-1 28 Nov 19:24:50 19:26:18 11° 351° (N) 19:27:47 437.475
CUTE 1.7 + AOD 2 28 Nov 19:27:18 19:30:58 29° 56° (NE) 19:34:39 437.475
M-CUBED/EXP-1 PRIME 28 Nov 19:32:18 19:33:38 11° 353° (N) 19:34:58 437.505
ZACube-1 28 Nov 19:42:24 19:44:22 13° 42° (NE) 19:46:19 437.345
MaSat-1 28 Nov 19:42:32 19:43:34 12° 355° (N) 19:44:35 437.345
JAS-2 28 Nov 19:42:47 19:47:47 18° 287° (WNW) 19:52:45 435.910
RS-15 28 Nov 19:46:58 19:57:56 80° 340° (NNW) 20:09:13 29.354- 29.394
DOVE 4 28 Nov 19:52:50 19:56:34 29° 57° (ENE) 20:00:12 437.250
HO-68 28 Nov 19:54:08 20:01:18 71° 61° (ENE) 20:08:29 435.675
VELOX 1 28 Nov 19:54:28 19:56:53 15° 40° (NE) 19:59:17 145.980
BRITE-PL 28 Nov 19:55:32 19:59:56 45° 63° (ENE) 20:04:05 437.365/2234.400
SEEDS 28 Nov 19:55:52 19:59:49 40° 61° (ENE) 20:03:48 437.485
DELFI C3 28 Nov 19:56:24 19:59:30 21° 51° (NE) 20:02:38 145.870
50 SAT 28 Nov 20:05:14 20:06:44 12° 41° (NE) 20:08:14 437.505
CINEMA 3 28 Nov 20:05:31 20:09:00 26° 55° (NE) 20:12:28 145.822/145.860
ESTCUBE 1 28 Nov 20:05:58 20:07:14 11° 33° (NNE) 20:08:30 437.505/2401.250
UKube-1 28 Nov 20:06:08 20:09:51 28° 53° (NE) 20:13:35 .
AAUSAT CUBESAT 2 28 Nov 20:06:15 20:10:09 39° 61° (ENE) 20:14:06 437.432
Oscar 11 28 Nov 20:14:50 20:18:39 31° 57° (ENE) 20:22:30 145.826/435.025
FUNcube-1 28 Nov 20:15:10 20:18:09 19° 49° (NE) 20:21:09 145.935
AIST 1 28 Nov 20:19:38 20:24:01 64° 99° (E) 20:28:25
AISAT 28 Nov 20:21:37 20:24:50 20° 47° (NE) 20:28:02 437.250
COMPASS 1 28 Nov 20:23:34 20:27:41 56° 66° (ENE) 20:31:50 437.405
Cubesat XI-IV 28 Nov 20:23:57 20:26:13 13° 282° (WNW) 20:28:29 437.490
CUBEBUG 1 28 Nov 20:24:23 20:26:11 12° 37° (NE) 20:27:59 437.445
MOZHAYETS 4 28 Nov 20:27:25 20:30:50 21° 313° (NW) 20:34:15
CANX-2 28 Nov 20:28:08 20:32:23 79° 70° (ENE) 20:36:40 2200.000
PRISM 28 Nov 20:29:53 20:33:57 44° 299° (WNW) 20:37:59 437.425
AIST 2 28 Nov 20:30:48 20:32:59 14° 116° (ESE) 20:35:10 435.215
HUMSAT D 28 Nov 20:36:14 20:39:13 20° 50° (NE) 20:42:13 437.325/437.525
CUBESAT XI-V 28 Nov 20:39:56 20:44:38 70° 292° (WNW) 20:49:16 437.345
PCSat 28 Nov 20:41:26 20:46:37 48° 127° (SE) 20:51:50 145.827
DX 1 28 Nov 20:44:17 20:48:31 48° 62° (ENE) 20:52:45 434.975-435.025
UWE-3 28 Nov 20:48:24 20:52:09 33° 59° (ENE) 20:55:54 435.000/436.395/437.385
GOMX 1 28 Nov 20:48:43 20:53:13 83° 71° (ENE) 20:57:30 467.674
STRAND 1 28 Nov 20:48:46 20:53:55 74° 293° (WNW) 20:59:00 437.568
CUBEBUG 2 28 Nov 20:54:45 20:58:40 40° 61° (ENE) 21:02:34 437.445
AUBIESAT-1 28 Nov 20:57:52 20:59:36 12° 13° (NNE) 21:01:21 437.475
BEESAT 3 28 Nov 20:59:57 21:03:40 32° 130° (SE) 21:07:25 437.485
GONETS M04 28 Nov 21:01:20 21:09:35 46° 275° (W) 21:17:47
CUTE 1.7 + AOD 2 28 Nov 21:02:29 21:06:41 62° 257° (WSW) 21:10:57 437.475
M-CUBED/EXP-1 PRIME 28 Nov 21:05:01 21:06:59 13° 16° (NNE) 21:08:59 437.505
TISAT 1 28 Nov 21:15:53 21:17:07 11° 37° (NE) 21:18:20 437.305
ZACube-1 28 Nov 21:15:55 21:19:54 46° 63° (ENE) 21:23:54 437.345
MaSat-1 28 Nov 21:17:20 21:18:52 15° 19° (NNE) 21:20:23 437.345
BEESAT 2 28 Nov 21:17:52 21:21:45 38° 133° (SE) 21:25:41 435.950
VELOX 1 28 Nov 21:28:19 21:32:35 46° 62° (ENE) 21:36:52 145.980
DOVE 4 28 Nov 21:29:52 21:34:12 61° 257° (WSW) 21:38:24 437.250
DELFI C3 28 Nov 21:30:16 21:34:22 89° 252° (WSW) 21:38:32 145.870
SEEDS 28 Nov 21:31:42 21:35:42 41° 262° (W) 21:39:45 437.485
BRITE-PL 28 Nov 21:34:14 21:38:36 39° 263° (W) 21:42:44 437.365/2234.400
SPROUT 28 Nov 21:34:57 21:36:57 13° 40° (NE) 21:38:57 437.525
CUSAT 1 28 Nov 21:34:58 21:37:26 15° 49° (NE) 21:40:17 437.405
50 SAT 28 Nov 21:37:21 21:41:09 41° 62° (ENE) 21:44:58 437.505
ESTCUBE 1 28 Nov 21:38:55 21:42:56 31° 55° (NE) 21:46:58 437.505/2401.250
UKube-1 28 Nov 21:41:24 21:45:46 69° 254° (WSW) 21:50:08 .
CINEMA 3 28 Nov 21:41:44 21:45:59 69° 255° (WSW) 21:50:09 145.822/145.860
AAUSAT CUBESAT 2 28 Nov 21:41:55 21:45:53 41° 262° (W) 21:49:55 437.432
HO-68 28 Nov 21:42:48 21:49:32 41° 264° (W) 21:56:19 435.675
FUNcube-1 28 Nov 21:49:51 21:54:01 81° 71° (ENE) 21:58:12 145.935
Oscar 11 28 Nov 21:50:24 21:54:40 57° 258° (WSW) 21:58:58 145.826/435.025
AISAT 28 Nov 21:56:25 22:00:53 72° 68° (ENE) 22:05:21 437.250
ITUPSAT 1 28 Nov 21:57:26 21:58:06 10° 27° (NNE) 21:58:46 437.325
CUBEBUG 1 28 Nov 21:57:27 22:01:33 38° 59° (ENE) 22:05:39 437.445
AIST 1 28 Nov 21:58:14 22:02:05 28° 301° (WNW) 22:05:56
COMPASS 1 28 Nov 22:00:03 22:03:43 29° 267° (W) 22:07:25 437.405
RS-15 28 Nov 22:00:15 22:11:16 76° 11° (NNE) 22:22:41 29.354- 29.394
TIGRISAT 28 Nov 22:05:29 22:06:31 11° 79° (E) 22:07:33 435.000
CANX-2 28 Nov 22:05:37 22:08:52 21° 272° (W) 22:12:09 2200.000
SWISSCUBE 28 Nov 22:05:57 22:07:30 12° 30° (NNE) 22:09:03 437.505
PRISM 28 Nov 22:06:33 22:08:37 13° 320° (NW) 22:10:40 437.425
AIST 2 28 Nov 22:06:37 22:10:45 50° 137° (SE) 22:14:57 435.215
HUMSAT D 28 Nov 22:10:25 22:14:33 83° 71° (ENE) 22:18:42 437.325/437.525
DANDE 28 Nov 22:15:04 22:18:10 21° 56° (NE) 22:21:59 436.750
CUBESAT XI-V 28 Nov 22:18:02 22:21:26 20° 314° (NW) 22:24:48 437.345
UNISAT 6 28 Nov 22:19:57 22:22:21 14° 83° (E) 22:24:46 437.425
DX 1 28 Nov 22:20:53 22:24:56 36° 263° (W) 22:29:00 434.975-435.025
PCSat 28 Nov 22:24:33 22:29:59 69° 331° (NNW) 22:35:26 145.827
UWE-3 28 Nov 22:24:35 22:28:39 49° 260° (W) 22:32:43 435.000/436.395/437.385
STRAND 1 28 Nov 22:28:30 22:32:28 23° 315° (NW) 22:36:25 437.568
GOMX 1 28 Nov 22:28:35 22:31:55 20° 271° (W) 22:35:09 467.674
AUBIESAT-1 28 Nov 22:29:42 22:33:10 22° 35° (NE) 22:36:48 437.475
POLYITAN 1 28 Nov 22:30:00 22:31:39 12° 81° (E) 22:33:17 437.675
QB50P2 28 Nov 22:30:37 22:32:20 12° 81° (E) 22:34:03 145.880/145.840
CUBEBUG 2 28 Nov 22:31:30 22:35:27 40° 262° (W) 22:39:24 437.445
DUCHIFAT 1 28 Nov 22:34:19 22:36:12 13° 82° (E) 22:38:06 145.980
BEESAT 28 Nov 22:34:53 22:37:27 15° 36° (NE) 22:40:01 436.000
M-CUBED/EXP-1 PRIME 28 Nov 22:37:02 22:40:40 24° 38° (NE) 22:44:29 437.505
BEESAT 3 28 Nov 22:37:26 22:41:37 84° 332° (NNW) 22:45:52 437.485
CUTE 1.7 + AOD 2 28 Nov 22:41:35 22:43:33 13° 279° (W) 22:45:31 437.475
TISAT 1 28 Nov 22:48:03 22:51:56 35° 58° (ENE) 22:55:48 437.305
ANTELSAT 28 Nov 22:48:27 22:51:57 22° 90° (E) 22:55:30 437.575/2403.000
MaSat-1 28 Nov 22:51:26 22:53:45 60° 41° (NE) 22:56:02 437.345
ZACube-1 28 Nov 22:52:39 22:56:28 34° 264° (W) 23:00:18 437.345
NANOSAT C BR1 28 Nov 22:53:38 22:56:32 18° 87° (E) 22:59:25 145.865
BEESAT 2 28 Nov 22:55:41 22:59:53 75° 335° (NNW) 23:04:09 435.950
BUGSAT 1 28 Nov 22:57:28 23:00:02 16° 86° (E) 23:02:34 437.445
GONETS M04 28 Nov 22:59:26 23:04:06 16° 301° (WNW) 23:08:45
QB50P1 28 Nov 23:03:49 23:07:03 21° 89° (E) 23:10:17 145.935-145.965
VELOX 1 28 Nov 23:05:07 23:09:19 39° 263° (W) 23:13:31 145.980
DELFI C3 28 Nov 23:07:31 23:10:19 18° 273° (W) 23:13:08 145.870
SPROUT 28 Nov 23:08:03 23:12:08 43° 62° (ENE) 23:16:14 437.525
DOVE 4 28 Nov 23:11:04 23:12:54 12° 278° (W) 23:14:43 437.250
50 SAT 28 Nov 23:12:49 23:16:34 37° 263° (W) 23:20:20 437.505
ESTCUBE 1 28 Nov 23:15:04 23:19:36 64° 256° (WSW) 23:24:11 437.505/2401.250
CUSAT 1 28 Nov 23:17:09 23:21:14 58° 68° (ENE) 23:26:45 437.405
UKube-1 28 Nov 23:20:17 23:22:46 15° 276° (W) 23:25:16 .
CINEMA 3 28 Nov 23:21:50 23:24:02 14° 277° (W) 23:26:14 145.822/145.860
FUNcube-1 28 Nov 23:27:52 23:30:57 20° 272° (W) 23:34:02 145.935
POPSAT HIP 1 28 Nov 23:28:50 23:32:38 31° 95° (E) 23:36:24 437.405
Oscar 11 28 Nov 23:30:05 23:31:50 12° 279° (W) 23:33:35 145.826/435.025
ITUPSAT 1 28 Nov 23:30:39 23:34:35 26° 49° (NE) 23:38:33 437.325
CUBEBUG 1 28 Nov 23:33:37 23:37:55 48° 260° (W) 23:42:14 437.445
AISAT 28 Nov 23:34:19 23:37:59 25° 269° (W) 23:41:41 437.250
HO-68 28 Nov 23:36:51 23:39:28 12° 289° (WNW) 23:42:05 435.675
SWISSCUBE 28 Nov 23:39:56 23:44:05 30° 52° (NE) 23:48:16 437.505
TIGRISAT 28 Nov 23:40:04 23:44:21 50° 101° (E) 23:48:44 435.000
AIST 2 28 Nov 23:45:06 23:49:24 66° 339° (NNW) 23:53:44 435.215
KKS-1 28 Nov 23:45:11 23:47:15 13° 38° (NE) 23:49:19 437.445
HUMSAT D 28 Nov 23:47:57 23:50:56 19° 272° (W) 23:53:57 437.325/437.525
UNISAT 6 28 Nov 23:55:37 00:00:02 65° 104° (ESE) 00:04:31 437.425
DANDE 28 Nov 23:58:00 00:02:01 86° 253° (WSW) 00:07:31 436.750
AUBIESAT-1 29 Nov 00:03:01 00:07:26 62° 57° (ENE) 00:12:11 437.475
POLYITAN 1 29 Nov 00:04:21 00:08:34 58° 103° (ESE) 00:12:44 437.675
QB50P2 29 Nov 00:05:00 00:09:13 59° 103° (ESE) 00:13:24 145.880/145.840
DUCHIFAT 1 29 Nov 00:08:47 00:13:00 62° 103° (ESE) 00:17:11 145.980
PCSat 29 Nov 00:08:53 00:14:07 45° 355° (N) 00:19:21 145.827
STRAND 1 29 Nov 00:09:20 00:10:05 10° 339° (NNW) 00:10:51 437.568
BEESAT 29 Nov 00:09:46 00:14:16 41° 58° (ENE) 00:18:48 436.000
M-CUBED/EXP-1 PRIME 29 Nov 00:10:39 00:15:06 72° 60° (ENE) 00:19:54 437.505
RS-15 29 Nov 00:13:00 00:24:00 75° 222° (SW) 00:35:26 29.354- 29.394
BEESAT 3 29 Nov 00:16:07 00:20:13 50° 355° (N) 00:24:21 437.485
TISAT 1 29 Nov 00:23:34 00:27:43 49° 259° (W) 00:31:52 437.305
ANTELSAT 29 Nov 00:24:51 00:29:17 79° 290° (WNW) 00:33:49 437.575/2403.000
MaSat-1 29 Nov 00:26:34 00:27:52 14° 242° (WSW) 00:29:10 437.345
NANOSAT C BR1 29 Nov 00:28:49 00:33:05 87° 108° (ESE) 00:37:19 145.865
BUGSAT 1 29 Nov 00:32:06 00:36:15 81° 107° (ESE) 00:40:20 437.445
STARS 29 Nov 00:32:31 00:35:32 18° 45° (NE) 00:38:33 437.465
BEESAT 2 29 Nov 00:34:29 00:38:36 49° 358° (N) 00:42:44 435.950
YUBILEINY 29 Nov 00:36:07 00:40:59 16° 61° (ENE) 00:45:50 435.215
QB50P1 29 Nov 00:39:15 00:43:30 79° 290° (WNW) 00:47:44 145.935-145.965
SPROUT 29 Nov 00:44:15 00:48:19 39° 263° (W) 00:52:24 437.525
ESTCUBE 1 29 Nov 00:54:57 00:57:26 14° 278° (W) 00:59:55 437.505/2401.250
ISS 29 Nov 00:57:43 00:59:21 13° 162° (SSE) 01:00:59 145.825
Oscar 19 29 Nov 00:59:56 01:02:41 14° 80° (E) 01:05:24 437.125/150
CUSAT 1 29 Nov 01:00:30 01:04:20 31° 264° (W) 01:09:13 437.405
POPSAT HIP 1 29 Nov 01:04:40 01:08:47 52° 296° (WNW) 01:12:53 437.405
ITUPSAT 1 29 Nov 01:07:11 01:12:02 89° 251° (WSW) 01:16:55 437.325
CUBEBUG 1 29 Nov 01:14:46 01:15:26 10° 281° (WNW) 01:16:05 437.445
SWISSCUBE 29 Nov 01:16:50 01:21:40 74° 254° (WSW) 01:26:31 437.505
TIGRISAT 29 Nov 01:17:03 01:21:05 36° 301° (WNW) 01:25:11 435.000
KKS-1 29 Nov 01:18:46 01:22:56 41° 60° (ENE) 01:27:07 437.445
AIST 2 29 Nov 01:24:17 01:28:31 50° 3° (N) 01:32:45 435.215
UNISAT 6 29 Nov 01:32:48 01:36:37 30° 305° (NW) 01:40:30 437.425
AUBIESAT-1 29 Nov 01:38:45 01:42:45 33° 259° (W) 01:47:03 437.475
POLYITAN 1 29 Nov 01:40:38 01:44:22 30° 304° (WNW) 01:48:04 437.675
QB50P2 29 Nov 01:41:15 01:44:58 30° 304° (NW) 01:48:41 145.880/145.840
DANDE 29 Nov 01:42:18 01:45:16 18° 270° (W) 01:48:49 436.750
DUCHIFAT 1 29 Nov 01:45:01 01:48:40 29° 304° (NW) 01:52:19 145.980
M-CUBED/EXP-1 PRIME 29 Nov 01:46:48 01:50:37 27° 262° (W) 01:54:41 437.505
BEESAT 29 Nov 01:47:28 01:52:08 49° 260° (W) 01:56:50 436.000
PCSat 29 Nov 01:53:01 01:58:23 55° 20° (NNE) 02:03:44 145.827
BEESAT 3 29 Nov 01:54:46 01:58:57 61° 18° (NNE) 02:03:08 437.485
ITAMSAT 1 29 Nov 02:00:15 02:03:44 18° 84° (E) 02:07:12 435.822/435.867
ANTELSAT 29 Nov 02:02:19 02:05:35 21° 311° (NW) 02:08:55 437.575/2403.000
TISAT 1 29 Nov 02:04:00 02:04:37 10° 280° (W) 02:05:13 437.305
NANOSAT C BR1 29 Nov 02:05:16 02:08:33 22° 309° (NW) 02:11:50 145.865
STARS 29 Nov 02:07:01 02:11:23 67° 67° (ENE) 02:15:46 437.465
BUGSAT 1 29 Nov 02:08:09 02:11:23 23° 308° (NW) 02:14:36 437.445
BEESAT 2 29 Nov 02:13:09 02:17:22 66° 21° (NNE) 02:21:35 435.950
QB50P1 29 Nov 02:15:49 02:18:53 20° 311° (NW) 02:21:56 145.935-145.965
RS-15 29 Nov 02:25:24 02:34:53 35° 249° (WSW) 02:44:42 29.354- 29.394
YUBILEINY 29 Nov 02:27:21 02:35:36 48° 87° (E) 02:43:50 435.215
ISS 29 Nov 02:32:55 02:35:07 17° 182° (S) 02:37:19 145.825
Oscar 19 29 Nov 02:38:04 02:43:11 57° 102° (ESE) 02:48:17 437.125/150
POPSAT HIP 1 29 Nov 02:41:34 02:43:55 15° 317° (NW) 02:46:16 437.405
ITUPSAT 1 29 Nov 02:46:57 02:50:38 21° 272° (W) 02:54:20 437.325
MOZHAYETS 4 29 Nov 02:49:05 02:52:27 20° 47° (NE) 02:55:50
Gurwin Techsat 1B 29 Nov 02:52:07 02:56:37 27° 90° (E) 03:01:05 435.225
TIGRISAT 29 Nov 02:55:14 02:56:50 12° 323° (NW) 02:58:26 435.000
KKS-1 29 Nov 02:55:21 02:59:37 44° 261° (W) 03:03:54 437.445
SWISSCUBE 29 Nov 02:57:12 03:00:24 17° 275° (W) 03:03:36 437.505
AO-7 29 Nov 03:00:01 03:03:47 13° 71° (ENE) 03:07:32 29.400- 29.500
AIST 2 29 Nov 03:03:13 03:07:35 77° 26° (NNE) 03:11:55 435.215
UNISAT 6 29 Nov 03:12:00 03:12:15 10° 327° (NNW) 03:12:30 437.425
SO-50 29 Nov 03:17:00 03:19:10 13° 113° (ESE) 03:21:21 436.795
STRAND 1 29 Nov 03:22:20 03:24:20 12° 27° (NNE) 03:26:21 437.568
BEESAT 29 Nov 03:29:40 03:31:12 11° 282° (WNW) 03:32:45 436.000
BEESAT 3 29 Nov 03:33:07 03:37:15 57° 220° (SW) 03:41:22 437.485
PCSat 29 Nov 03:36:39 03:42:05 71° 224° (SW) 03:47:29 145.827
ITAMSAT 1 29 Nov 03:38:59 03:44:12 71° 106° (ESE) 03:49:23 435.822/435.867
STARS 29 Nov 03:44:34 03:48:17 26° 268° (W) 03:52:00 437.465
BEESAT 2 29 Nov 03:51:34 03:55:39 48° 223° (SW) 03:59:42 435.950
HORYU 2 29 Nov 03:55:10 03:59:19 35° 96° (E) 04:03:27 437.375
ISS 29 Nov 04:09:44 04:10:51 11° 202° (SSW) 04:11:57 145.825
Oscar 19 29 Nov 04:17:40 04:22:27 40° 304° (WNW) 04:27:15 437.125/150
PRISM 29 Nov 04:20:27 04:23:56 25° 52° (NE) 04:27:27 437.425
YUBILEINY 29 Nov 04:23:30 04:32:15 66° 292° (WNW) 04:41:01 435.215
MOZHAYETS 4 29 Nov 04:24:26 04:29:03 72° 68° (ENE) 04:33:43
Gurwin Techsat 1B 29 Nov 04:31:51 04:37:12 80° 292° (WNW) 04:42:31 435.225
AIST 1 29 Nov 04:39:30 04:42:01 15° 46° (NE) 04:44:31
CUBESAT XI-V 29 Nov 04:40:21 04:43:54 21° 48° (NE) 04:47:26 437.345
AIST 2 29 Nov 04:42:02 04:46:03 38° 228° (SW) 04:50:02 435.215
AO-7 29 Nov 04:51:18 04:59:12 43° 97° (E) 05:07:04 29.400- 29.500
JAS-2 29 Nov 04:52:21 04:58:06 24° 80° (E) 05:03:20 435.910
SO-50 29 Nov 04:54:16 04:58:41 46° 135° (SE) 05:03:15 436.795
STRAND 1 29 Nov 04:57:45 05:02:10 30° 50° (NE) 05:06:35 437.568
BEESAT 3 29 Nov 05:12:11 05:14:46 16° 242° (WSW) 05:17:20 437.485
ITAMSAT 1 29 Nov 05:18:49 05:23:27 33° 308° (NW) 05:28:03 435.822/435.867
PCSat 29 Nov 05:20:37 05:24:46 23° 247° (WSW) 05:28:54 145.827
BEESAT 2 29 Nov 05:31:07 05:33:05 13° 245° (WSW) 05:35:02 435.950
HORYU 2 29 Nov 05:31:50 05:36:12 51° 297° (WNW) 05:40:34 437.375
CUTE-I 29 Nov 05:47:31 05:50:26 15° 80° (E) 05:53:21 437.470
PRISM 29 Nov 05:54:55 05:59:10 77° 253° (WSW) 06:03:27 437.425
O/OREOS (USA 219) 29 Nov 05:55:25 05:59:00 24° 108° (ESE) 06:02:35 437.305
Oscar 19 29 Nov 05:57:50 06:00:40 15° 326° (NNW) 06:03:30 437.125/150
MOZHAYETS 4 29 Nov 06:02:53 06:06:46 26° 270° (W) 06:10:41
Gurwin Techsat 1B 29 Nov 06:12:18 06:16:36 26° 314° (NW) 06:20:52 435.225
CUBESAT XI-V 29 Nov 06:16:01 06:20:45 76° 69° (ENE) 06:25:29 437.345
AIST 1 29 Nov 06:16:24 06:20:45 54° 69° (ENE) 06:25:02
YUBILEINY 29 Nov 06:23:36 06:31:00 29° 321° (NW) 06:38:24 435.215
GONETS M04 29 Nov 06:26:13 06:31:33 18° 62° (ENE) 06:36:54
SO-50 29 Nov 06:34:28 06:39:09 74° 338° (NNW) 06:43:59 436.795
STRAND 1 29 Nov 06:35:50 06:41:00 81° 252° (WSW) 06:46:11 437.568
JAS-2 29 Nov 06:37:05 06:44:30 75° 105° (ESE) 06:51:02 435.910
AO-7 29 Nov 06:44:19 06:52:41 76° 301° (WNW) 07:01:02 29.400- 29.500
Cubesat XI-IV 29 Nov 06:46:11 06:51:01 33° 94° (E) 06:55:49 437.490
ITAMSAT 1 29 Nov 06:59:12 07:01:40 14° 331° (NNW) 07:04:07 435.822/435.867
HORYU 2 29 Nov 07:09:24 07:12:04 16° 319° (NW) 07:14:44 437.375
CUTE-I 29 Nov 07:26:26 07:31:43 57° 102° (ESE) 07:36:57 437.470
PRISM 29 Nov 07:32:51 07:35:28 16° 274° (W) 07:38:06 437.425
O/OREOS (USA 219) 29 Nov 07:33:29 07:37:59 83° 309° (NW) 07:42:29 437.305
TIGRISAT 29 Nov 07:40:39 07:41:18 10° 34° (NE) 07:41:58 435.000
Gurwin Techsat 1B 29 Nov 07:53:24 07:55:00 11° 337° (NNW) 07:56:37 435.225
AIST 1 29 Nov 07:54:24 07:58:14 30° 271° (W) 08:02:01
CUBESAT XI-V 29 Nov 07:54:48 07:58:42 25° 270° (W) 08:02:38 437.345
UNISAT 6 29 Nov 07:55:05 07:56:52 12° 38° (NE) 07:58:39 437.425
POLYITAN 1 29 Nov 08:00:17 08:01:19 11° 36° (NE) 08:02:20 437.675
QB50P2 29 Nov 08:00:42 08:01:47 11° 36° (NE) 08:02:53 145.880/145.840
DUCHIFAT 1 29 Nov 08:04:02 08:05:16 11° 37° (NE) 08:06:30 145.980
SO-50 29 Nov 08:15:30 08:20:11 56° 2° (N) 08:24:58 436.795
STRAND 1 29 Nov 08:17:13 08:21:01 20° 274° (W) 08:24:49 437.568
GONETS M04 29 Nov 08:17:54 08:26:19 52° 88° (E) 08:34:46
JAS-2 29 Nov 08:22:20 08:29:11 42° 310° (NW) 08:35:21 435.910
NANOSAT C BR1 29 Nov 08:22:54 08:25:05 14° 42° (NE) 08:27:16 145.865
ANTELSAT 29 Nov 08:22:57 08:25:44 17° 45° (NE) 08:28:32 437.575/2403.000
BUGSAT 1 29 Nov 08:24:34 08:26:26 13° 41° (NE) 08:28:18 437.445
YUBILEINY 29 Nov 08:25:53 08:31:35 18° 353° (N) 08:37:17 435.215
Cubesat XI-IV 29 Nov 08:26:13 08:31:32 66° 296° (WNW) 08:36:48 437.490
QB50P1 29 Nov 08:32:52 08:35:25 16° 44° (NE) 08:37:57 145.935-145.965
AO-7 29 Nov 08:37:14 08:44:37 37° 326° (NNW) 08:51:59 29.400- 29.500
CUTE 1.7 + AOD 2 29 Nov 08:38:53 08:41:11 14° 83° (E) 08:43:28 437.475
GOMX 1 29 Nov 08:42:03 08:43:05 11° 80° (E) 08:44:08 467.674
POPSAT HIP 1 29 Nov 08:57:20 09:00:31 21° 50° (NE) 09:03:43 437.405
HO-68 29 Nov 08:58:22 09:04:29 29° 88° (E) 09:10:33 435.675
SEEDS 29 Nov 09:06:30 09:09:41 20° 88° (E) 09:12:52 437.485
CUTE-I 29 Nov 09:06:45 09:11:44 41° 304° (NW) 09:16:40 437.470
TIGRISAT 29 Nov 09:13:10 09:16:56 31° 56° (ENE) 09:20:45 435.000
O/OREOS (USA 219) 29 Nov 09:14:02 09:17:59 30° 333° (NNW) 09:21:57 437.305
AAUSAT CUBESAT 2 29 Nov 09:15:40 09:18:44 19° 87° (E) 09:21:48 437.432
DOVE 4 29 Nov 09:19:09 09:21:56 17° 86° (E) 09:24:44 437.250
UKube-1 29 Nov 09:21:02 09:22:26 11° 81° (E) 09:23:49 .
CINEMA 3 29 Nov 09:27:17 09:29:35 14° 84° (E) 09:31:54 145.822/145.860
BRITE-PL 29 Nov 09:28:11 09:31:51 29° 93° (E) 09:35:31 437.365/2234.400
Oscar 11 29 Nov 09:28:28 09:31:06 16° 84° (E) 09:33:43 145.826/435.025
UNISAT 6 29 Nov 09:28:41 09:32:41 40° 60° (ENE) 09:36:44 437.425
POLYITAN 1 29 Nov 09:32:23 09:36:13 34° 58° (ENE) 09:40:03 437.675
QB50P2 29 Nov 09:32:50 09:36:40 34° 58° (ENE) 09:40:31 145.880/145.840
COMPASS 1 29 Nov 09:33:21 09:37:02 27° 92° (E) 09:40:42 437.405
DUCHIFAT 1 29 Nov 09:36:16 09:40:08 35° 59° (ENE) 09:44:00 145.980
CANX-2 29 Nov 09:39:34 09:43:39 39° 97° (E) 09:47:42 2200.000
NANOSAT C BR1 29 Nov 09:56:04 10:00:09 48° 63° (ENE) 10:04:14 145.865
SO-50 29 Nov 09:56:21 10:01:10 81° 25° (NNE) 10:06:04 436.795
BUGSAT 1 29 Nov 09:57:04 10:01:04 43° 62° (ENE) 10:05:02 437.445
ANTELSAT 29 Nov 09:57:38 10:01:51 63° 67° (ENE) 10:06:09 437.575/2403.000
DX 1 29 Nov 09:59:08 10:02:33 22° 90° (E) 10:05:56 434.975-435.025
UWE-3 29 Nov 10:04:47 10:07:42 18° 87° (E) 10:10:39 435.000/436.395/437.385
QB50P1 29 Nov 10:06:26 10:10:36 57° 66° (ENE) 10:14:46 145.935-145.965
Cubesat XI-IV 29 Nov 10:06:51 10:10:53 22° 318° (NW) 10:14:53 437.490
JAS-2 29 Nov 10:07:21 10:12:33 21° 335° (NNW) 10:17:27 435.910
CUBEBUG 2 29 Nov 10:12:23 10:15:43 22° 90° (E) 10:19:06 437.445
CUTE 1.7 + AOD 2 29 Nov 10:13:40 10:17:58 67° 104° (ESE) 10:22:16 437.475
GONETS M04 29 Nov 10:14:22 10:23:08 63° 294° (WNW) 10:31:58
ITAMSAT 1 29 Nov 10:15:55 10:16:32 10° 19° (NNE) 10:17:09 435.822/435.867
GOMX 1 29 Nov 10:18:09 10:22:15 55° 102° (ESE) 10:26:24 467.674
YUBILEINY 29 Nov 10:26:00 10:32:35 23° 27° (NNE) 10:39:07 435.215
AO-7 29 Nov 10:29:07 10:35:27 25° 353° (N) 10:41:49 29.400- 29.500
ZACube-1 29 Nov 10:30:55 10:34:25 24° 91° (E) 10:37:56 437.345
POPSAT HIP 1 29 Nov 10:31:42 10:35:58 86° 72° (ENE) 10:40:14 437.405
DELFI C3 29 Nov 10:36:25 10:40:22 40° 98° (E) 10:44:18 145.870
SEEDS 29 Nov 10:41:48 10:46:06 84° 289° (WNW) 10:50:24 437.485
50 SAT 29 Nov 10:43:47 10:46:39 18° 88° (E) 10:49:32 437.505
VELOX 1 29 Nov 10:45:49 10:49:20 23° 90° (E) 10:52:50 145.980
HO-68 29 Nov 10:45:58 10:53:14 86° 112° (ESE) 11:00:25 435.675
CUTE-I 29 Nov 10:47:33 10:50:39 16° 327° (NNW) 10:53:44 437.470
TIGRISAT 29 Nov 10:49:22 10:53:33 56° 258° (WSW) 10:57:49 435.000
Oscar 19 29 Nov 10:49:26 10:52:50 18° 39° (NE) 10:56:14 437.125/150
AAUSAT CUBESAT 2 29 Nov 10:50:45 10:55:02 87° 288° (WNW) 10:59:17 437.432
O/OREOS (USA 219) 29 Nov 10:55:20 10:58:42 20° 358° (N) 11:02:05 437.305
UKube-1 29 Nov 10:55:21 10:59:39 53° 102° (ESE) 11:03:54 .
DOVE 4 29 Nov 10:56:12 11:00:24 87° 108° (ESE) 11:04:40 437.250
ESTCUBE 1 29 Nov 10:58:38 11:01:26 16° 84° (E) 11:04:12 437.505/2401.250
CINEMA 3 29 Nov 11:03:25 11:07:37 70° 105° (ESE) 11:11:56 145.822/145.860
Oscar 11 29 Nov 11:03:41 11:08:04 73° 105° (ESE) 11:12:26 145.826/435.025
FUNcube-1 29 Nov 11:04:38 11:08:41 42° 98° (E) 11:12:46 145.935
UNISAT 6 29 Nov 11:05:28 11:09:32 42° 262° (W) 11:13:41 437.425
BRITE-PL 29 Nov 11:06:38 11:10:42 52° 295° (WNW) 11:14:45 437.365/2234.400
POLYITAN 1 29 Nov 11:07:57 11:12:06 51° 259° (W) 11:16:15 437.675
QB50P2 29 Nov 11:08:22 11:12:31 51° 259° (W) 11:16:41 145.880/145.840
Gurwin Techsat 1B 29 Nov 11:08:33 11:10:43 13° 26° (NNE) 11:12:54 435.225
COMPASS 1 29 Nov 11:08:54 11:13:06 60° 293° (WNW) 11:17:18 437.405
DUCHIFAT 1 29 Nov 11:11:50 11:15:57 48° 260° (W) 11:20:05 145.980
CUBEBUG 1 29 Nov 11:13:04 11:16:08 18° 87° (E) 11:19:11 437.445
AISAT 29 Nov 11:14:16 11:18:23 35° 96° (E) 11:22:27 437.250
CANX-2 29 Nov 11:15:36 11:19:41 42° 298° (WNW) 11:23:45 2200.000
HUMSAT D 29 Nov 11:20:49 11:24:46 39° 98° (E) 11:28:43 437.325/437.525
NANOSAT C BR1 29 Nov 11:32:19 11:36:13 34° 264° (W) 11:40:07 145.865
BUGSAT 1 29 Nov 11:32:43 11:36:41 38° 262° (W) 11:40:37 437.445
DX 1 29 Nov 11:34:57 11:39:20 79° 291° (WNW) 11:43:41 434.975-435.025
ANTELSAT 29 Nov 11:35:26 11:39:04 26° 268° (W) 11:42:45 437.575/2403.000
SO-50 29 Nov 11:37:02 11:41:33 41° 228° (SW) 11:46:07 436.795
UWE-3 29 Nov 11:40:39 11:44:54 87° 108° (ESE) 11:49:14 435.000/436.395/437.385
QB50P1 29 Nov 11:43:04 11:46:48 29° 266° (W) 11:50:32 145.935-145.965
Cubesat XI-IV 29 Nov 11:48:13 11:49:18 11° 342° (NNW) 11:50:22 437.490
CUBEBUG 2 29 Nov 11:48:42 11:52:56 75° 290° (WNW) 11:57:14 437.445
CUTE 1.7 + AOD 2 29 Nov 11:50:00 11:53:39 28° 305° (NW) 11:57:19 437.475
ITAMSAT 1 29 Nov 11:50:28 11:54:24 22° 43° (NE) 11:58:19 435.822/435.867
JAS-2 29 Nov 11:51:00 11:55:12 16° 0° (N) 11:59:14 435.910
GOMX 1 29 Nov 11:56:39 12:00:18 30° 303° (WNW) 12:03:58 467.674
TISAT 1 29 Nov 11:59:20 12:01:53 15° 85° (E) 12:04:25 437.305
ZACube-1 29 Nov 12:07:01 12:11:13 67° 292° (WNW) 12:15:29 437.345
POPSAT HIP 1 29 Nov 12:09:22 12:12:28 19° 272° (W) 12:15:35 437.405
DELFI C3 29 Nov 12:11:51 12:15:44 39° 299° (WNW) 12:19:36 145.870
GONETS M04 29 Nov 12:14:43 12:22:04 28° 323° (NW) 12:29:27
SEEDS 29 Nov 12:18:16 12:21:27 21° 310° (NW) 12:24:39 437.485
50 SAT 29 Nov 12:18:27 12:22:33 86° 288° (WNW) 12:26:38 437.505
AO-7 29 Nov 12:19:20 12:26:03 29° 20° (NNE) 12:32:48 29.400- 29.500
SPROUT 29 Nov 12:21:03 12:24:21 21° 89° (E) 12:27:37 437.525
VELOX 1 29 Nov 12:22:01 12:26:28 78° 291° (WNW) 12:30:54 145.980
YUBILEINY 29 Nov 12:23:46 12:32:09 46° 57° (ENE) 12:40:27 435.215
Oscar 19 29 Nov 12:26:18 12:31:15 52° 61° (ENE) 12:36:16 437.125/150
AAUSAT CUBESAT 2 29 Nov 12:27:03 12:30:15 21° 309° (NW) 12:33:27 437.432
TIGRISAT 29 Nov 12:29:50 12:31:21 12° 280° (W) 12:32:52 435.000
UKube-1 29 Nov 12:31:47 12:35:43 34° 303° (WNW) 12:39:38 .
HO-68 29 Nov 12:33:58 12:40:29 39° 316° (NW) 12:46:58 435.675
ESTCUBE 1 29 Nov 12:34:35 12:39:10 71° 105° (ESE) 12:43:42 437.505/2401.250
DOVE 4 29 Nov 12:34:37 12:37:48 22° 309° (NW) 12:41:01 437.250
O/OREOS (USA 219) 29 Nov 12:35:39 12:39:29 27° 23° (NNE) 12:43:19 437.305
Oscar 11 29 Nov 12:40:18 12:43:57 26° 306° (NW) 12:47:35 145.826/435.025
CINEMA 3 29 Nov 12:41:07 12:44:36 26° 305° (NW) 12:48:08 145.822/145.860
FUNcube-1 29 Nov 12:41:09 12:45:05 39° 299° (WNW) 12:49:05 145.935
CUSAT 1 29 Nov 12:42:51 12:44:33 15° 87° (E) 12:46:23 437.405
Gurwin Techsat 1B 29 Nov 12:44:43 12:49:16 30° 50° (NE) 12:53:49 435.225
COMPASS 1 29 Nov 12:45:31 12:48:09 16° 314° (NW) 12:50:47 437.405
BRITE-PL 29 Nov 12:46:16 12:48:27 14° 317° (NW) 12:50:38 437.365/2234.400
POLYITAN 1 29 Nov 12:48:12 12:49:06 11° 280° (W) 12:49:59 437.675
QB50P2 29 Nov 12:48:39 12:49:30 11° 280° (W) 12:50:21 145.880/145.840
CUBEBUG 1 29 Nov 12:48:47 12:53:12 87° 107° (ESE) 12:57:34 437.445
AISAT 29 Nov 12:50:55 12:55:12 49° 298° (WNW) 12:59:28 437.250
CANX-2 29 Nov 12:52:47 12:54:42 13° 320° (NW) 12:56:38 2200.000
HUMSAT D 29 Nov 12:56:44 13:00:40 41° 298° (WNW) 13:04:36 437.325/437.525
ITUPSAT 1 29 Nov 12:59:07 13:01:20 13° 80° (E) 13:03:32 437.325
SWISSCUBE 29 Nov 13:07:59 13:10:56 16° 83° (E) 13:13:52 437.505
DX 1 29 Nov 13:11:49 13:15:03 21° 312° (NW) 13:18:17 434.975-435.025
AUBIESAT-1 29 Nov 13:12:17 13:14:35 13° 87° (E) 13:16:51 437.475
UWE-3 29 Nov 13:17:48 13:21:04 22° 308° (NW) 13:24:22 435.000/436.395/437.385
SO-50 29 Nov 13:19:24 13:21:01 12° 249° (WSW) 13:22:39 436.795
M-CUBED/EXP-1 PRIME 29 Nov 13:19:54 13:22:54 16° 89° (E) 13:25:53 437.505
DANDE 29 Nov 13:25:33 13:27:57 32° 97° (E) 13:30:38 436.750
CUBEBUG 2 29 Nov 13:26:10 13:29:07 19° 311° (NW) 13:32:06 437.445
ITAMSAT 1 29 Nov 13:28:00 13:33:11 67° 65° (ENE) 13:38:22 435.822/435.867
HORYU 2 29 Nov 13:28:07 13:31:49 26° 52° (NE) 13:35:32 437.375
JAS-2 29 Nov 13:32:28 13:37:51 21° 25° (NNE) 13:43:02 435.910
TISAT 1 29 Nov 13:34:15 13:38:30 76° 106° (ESE) 13:42:43 437.305
BEESAT 29 Nov 13:37:40 13:41:33 24° 89° (E) 13:45:24 436.000
ZACube-1 29 Nov 13:44:13 13:47:00 18° 313° (NW) 13:49:49 437.345
DELFI C3 29 Nov 13:48:35 13:50:06 12° 320° (NW) 13:51:37 145.870
50 SAT 29 Nov 13:54:25 13:57:24 20° 309° (NW) 14:00:23 437.505
SPROUT 29 Nov 13:56:41 14:01:00 80° 290° (WNW) 14:05:17 437.525
VELOX 1 29 Nov 13:59:13 14:02:31 21° 313° (NW) 14:05:48 145.980
Oscar 19 29 Nov 14:05:58 14:10:48 41° 263° (W) 14:15:41 437.125/150
CUTE-I 29 Nov 14:06:22 14:06:42 10° 16° (NNE) 14:07:01 437.470
UKube-1 29 Nov 14:09:25 14:10:49 11° 325° (NW) 14:12:13 .
AO-7 29 Nov 14:09:26 14:17:21 51° 46° (NE) 14:25:19 29.400- 29.500
ESTCUBE 1 29 Nov 14:11:52 14:15:46 29° 307° (NW) 14:19:39 437.505/2401.250
O/OREOS (USA 219) 29 Nov 14:15:09 14:19:38 68° 47° (NE) 14:24:06 437.305
GONETS M04 29 Nov 14:16:58 14:22:47 19° 356° (N) 14:28:36
FUNcube-1 29 Nov 14:18:57 14:20:31 12° 321° (NW) 14:22:06 145.935
YUBILEINY 29 Nov 14:20:56 14:29:37 72° 263° (W) 14:38:14 435.215
HO-68 29 Nov 14:21:33 14:26:35 21° 341° (NNW) 14:31:36 435.675
Gurwin Techsat 1B 29 Nov 14:23:29 14:28:50 85° 252° (WSW) 14:34:12 435.225
CUSAT 1 29 Nov 14:24:40 14:27:16 43° 295° (WNW) 14:30:19 437.405
CUBEBUG 1 29 Nov 14:25:41 14:29:10 23° 309° (NW) 14:32:37 437.445
AISAT 29 Nov 14:28:29 14:31:00 15° 319° (NW) 14:33:31 437.250
HUMSAT D 29 Nov 14:33:55 14:35:35 12° 320° (NW) 14:37:14 437.325/437.525
ITUPSAT 1 29 Nov 14:35:35 14:40:21 55° 102° (ESE) 14:45:04 437.325
KKS-1 29 Nov 14:36:39 14:39:58 20° 88° (E) 14:43:16 437.445
SWISSCUBE 29 Nov 14:44:55 14:49:44 68° 105° (ESE) 14:54:31 437.505
AUBIESAT-1 29 Nov 14:45:49 14:50:39 52° 108° (ESE) 14:55:24 437.475
RS-15 29 Nov 14:53:17 15:00:17 20° 97° (E) 15:07:19 29.354- 29.394
M-CUBED/EXP-1 PRIME 29 Nov 14:53:57 14:58:52 62° 110° (ESE) 15:03:44 437.505
Cubesat XI-IV 29 Nov 15:02:28 15:05:21 15° 31° (NNE) 15:08:14 437.490
HORYU 2 29 Nov 15:03:42 15:08:10 78° 253° (WSW) 15:12:40 437.375
ITAMSAT 1 29 Nov 15:08:28 15:13:06 32° 267° (W) 15:17:46 435.822/435.867
DANDE 29 Nov 15:09:29 15:11:38 21° 305° (NW) 15:14:01 436.750
TISAT 1 29 Nov 15:10:33 15:14:01 25° 307° (NW) 15:17:27 437.305
JAS-2 29 Nov 15:14:03 15:21:13 41° 49° (NE) 15:28:08 435.910
BEESAT 29 Nov 15:15:09 15:20:00 82° 291° (WNW) 15:24:48 436.000
STARS 29 Nov 15:23:33 15:27:32 32° 95° (E) 15:31:30 437.465
SPROUT 29 Nov 15:33:25 15:36:34 20° 311° (NW) 15:39:43 437.525
MaSat-1 29 Nov 15:36:08 15:38:19 23° 123° (ESE) 15:40:24 437.345
CUTE-I 29 Nov 15:41:12 15:45:02 20° 40° (NE) 15:48:51 437.470
ESTCUBE 1 29 Nov 15:50:43 15:51:24 10° 329° (NNW) 15:52:04 437.505/2401.250
O/OREOS (USA 219) 29 Nov 15:54:53 15:58:47 30° 249° (WSW) 16:02:40 437.305
AO-7 29 Nov 16:01:42 16:10:00 71° 251° (WSW) 16:18:23 29.400- 29.500
Gurwin Techsat 1B 29 Nov 16:05:31 16:09:36 22° 274° (W) 16:13:43 435.225
HO-68 29 Nov 16:07:30 16:12:04 19° 7° (N) 16:16:38 435.675
KKS-1 29 Nov 16:12:46 16:17:15 87° 289° (WNW) 16:21:42 437.445
ITUPSAT 1 29 Nov 16:13:43 16:18:10 37° 303° (WNW) 16:22:34 437.325
GONETS M04 29 Nov 16:16:54 16:23:46 24° 29° (NNE) 16:30:35
YUBILEINY 29 Nov 16:18:24 16:25:02 25° 289° (WNW) 16:31:39 435.215
AUBIESAT-1 29 Nov 16:20:56 16:25:36 45° 308° (NW) 16:30:15 437.475
SWISSCUBE 29 Nov 16:23:07 16:27:22 32° 306° (NW) 16:31:36 437.505
M-CUBED/EXP-1 PRIME 29 Nov 16:29:12 16:33:46 39° 311° (NW) 16:38:19 437.505
Cubesat XI-IV 29 Nov 16:39:20 16:44:13 37° 54° (NE) 16:49:05 437.490
HORYU 2 29 Nov 16:42:44 16:45:37 17° 275° (W) 16:48:32 437.375
BEESAT 29 Nov 16:53:32 16:57:19 24° 312° (NW) 17:01:05 436.000
JAS-2 29 Nov 16:57:50 17:05:45 86° 252° (WSW) 17:13:28 435.910
RS-15 29 Nov 16:59:33 17:09:56 54° 124° (SE) 17:20:28 29.354- 29.394
STARS 29 Nov 16:59:58 17:04:17 53° 296° (WNW) 17:08:34 437.465
MaSat-1 29 Nov 17:10:10 17:12:37 41° 322° (NW) 17:14:56 437.345
CUTE-I 29 Nov 17:19:00 17:24:15 58° 62° (ENE) 17:29:31 437.470
MOZHAYETS 4 29 Nov 17:46:41 17:51:10 43° 98° (E) 17:55:37
KKS-1 29 Nov 17:49:58 17:53:26 23° 311° (NW) 17:56:53 437.445
ITUPSAT 1 29 Nov 17:52:38 17:54:57 14° 326° (NW) 17:57:16 437.325
